Vorticity
10 9 8 7 7 7 5 3 4 4 8 9 7 5 8 16 20 13 9 11 9 10 11 8 7 7 10 21 28 24 13 6 7 5 4 10 6 3 8 4 2 8
9 9 10 11 10 10 8 4 4 3 5 8 9 9 4 6 23 25 12 9 11 11 12 10 8 4 5 15 21 19 12 6 8 6 3 4 3 6 6 2 6 11
9 9 11 13 13 14 14 10 7 5 5 7 8 13 10 -0 11 27 21 9 8 13 15 12 10 6 4 10 15 16 13 9 9 7 5 5 5 6 5 5 12 13
7 9 11 13 14 15 16 15 13 10 11 13 13 16 22 18 8 8 14 13 6 11 17 15 12 8 4 6 13 19 16 11 9 7 6 8 9 10 9 7 10 8
8 11 11 12 12 12 12 12 12 11 9 11 14 14 20 31 23 5 6 16 11 8 17 17 11 8 5 5 10 18 19 12 8 7 7 9 11 11 8 3 1 3
8 10 11 11 11 11 12 12 11 12 10 7 8 7 5 13 22 15 9 14 12 8 15 17 11 8 6 5 6 12 18 15 11 11 8 6 9 8 2 -2 -1 6
7 9 10 9 10 9 10 13 13 13 15 13 11 10 8 7 14 19 15 16 15 9 13 17 12 8 7 6 3 5 12 14 14 15 12 8 9 8 5 5 8 12
7 8 8 7 7 8 8 9 12 15 16 18 15 12 13 12 12 18 18 19 18 10 9 14 14 13 11 6 4 3 7 12 11 10 9 10 12 11 10 8 10 15
7 8 8 7 6 7 8 8 10 13 14 17 18 15 15 14 14 20 18 16 17 11 7 9 10 16 16 10 7 4 5 9 10 10 10 12 14 13 10 8 8 13
7 8 8 9 8 8 8 8 8 10 12 14 15 15 17 15 16 22 20 15 18 16 12 8 4 9 17 19 13 6 5 10 10 11 10 8 11 13 14 13 9 9
6 9 8 8 8 8 8 7 7 7 9 12 12 13 17 18 19 26 24 15 13 15 16 16 10 4 8 21 22 12 9 10 8 8 9 6 7 13 15 14 10 10
6 8 9 8 8 7 7 7 6 6 7 10 11 11 15 18 20 30 34 21 9 10 15 19 17 3 -1 13 19 14 12 10 5 5 8 9 8 9 11 11 12 13
7 8 9 9 8 8 8 7 6 6 7 8 10 10 12 15 16 24 36 30 16 12 13 16 17 8 2 6 7 7 13 16 11 5 5 10 12 8 6 8 10 10
8 9 9 8 8 7 6 7 6 5 6 6 7 8 9 13 13 16 28 30 24 19 8 6 22 24 11 6 7 7 9 14 18 13 5 7 11 10 9 11 13 11
7 6 6 6 7 5 4 5 4 3 5 5 5 6 6 10 11 11 18 22 27 29 9 -2 24 34 11 3 12 8 -1 10 23 16 6 4 3 5 7 8 10 11
4 3 4 5 5 5 3 4 4 3 4 5 5 5 4 7 9 9 13 13 17 28 20 9 23 27 6 5 18 6 -5 9 20 15 15 16 6 4 9 12 15 16
2 4 8 9 8 7 5 4 4 4 4 6 8 7 4 5 6 7 12 12 9 15 20 18 20 18 8 12 21 16 7 7 6 9 19 21 13 10 13 18 20 18
5 8 10 10 10 10 9 7 6 6 5 5 8 10 7 5 5 5 7 12 11 9 12 15 15 13 12 13 16 20 20 10 3 7 13 15 16 13 7 11 14 10
6 6 5 5 6 9 11 11 10 8 7 7 8 9 10 8 6 5 4 7 11 11 10 12 10 6 8 12 14 19 23 18 11 8 6 12 17 13 8 10 7 8
6 4 3 4 6 9 13 16 15 12 10 9 7 5 6 8 9 9 6 4 6 9 10 12 11 7 6 7 9 13 18 20 17 8 6 15 16 11 11 10 5 13
8 7 7 7 7 8 10 12 14 13 12 11 9 5 5 7 10 11 9 6 4 5 7 9 11 12 11 8 7 8 9 12 15 12 11 14 14 11 12 13 16 21
9 8 7 8 7 6 4 4 4 7 9 8 8 8 7 8 10 12 11 8 6 4 5 6 7 9 11 11 10 10 9 8 11 14 14 13 14 14 12 13 20 18
8 8 9 9 10 9 8 8 7 8 10 9 8 10 10 9 9 11 13 12 9 7 6 6 6 6 7 9 10 11 12 12 11 13 14 12 13 16 13 13 24 20
9 9 9 9 9 9 9 9 8 8 8 7 6 7 9 10 8 8 11 13 12 11 8 7 7 6 5 7 8 9 11 13 13 13 12 11 11 15 13 8 16 22
6 6 5 5 4 3 3 2 2 2 3 3 3 2 2 5 7 7 8 10 12 13 12 10 9 8 7 6 6 8 10 11 13 13 13 14 12 12 13 7 9 21
4 4 4 4 4 4 3 3 3 3 3 4 5 4 1 0 2 5 7 8 9 11 12 12 12 10 10 9 7 7 8 9 12 12 13 16 13 9 11 12 15 22
Height
5785 5784 5783 5782 5781 5780 5779 5778 5776 5774 5772 5771 5771 5770 5769 5768 5768 5767 5766 5766 5767 5767 5768 5768 5768 5768 5767 5766 5766 5767 5768 5769 5770 5771 5772 5772 5773 5775 5777 5779 5780 5780
5782 5781 5780 5779 5778 5777 5775 5774 5772 5770 5768 5767 5767 5767 5766 5766 5765 5764 5763 5763 5763 5764 5765 5766 5766 5766 5765 5766 5765 5766 5767 5767 5769 5770 5770 5771 5771 5773 5775 5776 5776 5777
5778 5777 5776 5775 5774 5773 5772 5770 5769 5767 5765 5764 5763 5763 5763 5764 5763 5761 5759 5759 5760 5761 5762 5763 5763 5763 5764 5764 5764 5764 5764 5765 5767 5767 5768 5769 5769 5771 5772 5772 5773 5775
5775 5774 5773 5772 5771 5770 5768 5767 5766 5764 5762 5760 5759 5758 5758 5759 5759 5757 5755 5756 5757 5757 5758 5759 5760 5761 5761 5761 5761 5761 5761 5762 5763 5765 5765 5766 5766 5768 5769 5769 5770 5772
5772 5771 5770 5769 5768 5767 5766 5764 5763 5761 5759 5757 5756 5755 5754 5754 5754 5753 5753 5753 5754 5754 5755 5756 5756 5757 5758 5758 5758 5759 5758 5758 5759 5761 5762 5762 5763 5764 5766 5767 5767 5768
5769 5768 5767 5766 5765 5764 5763 5761 5760 5758 5757 5755 5753 5751 5751 5751 5750 5750 5750 5750 5750 5751 5751 5752 5753 5753 5754 5755 5756 5756 5756 5756 5756 5757 5759 5760 5760 5761 5763 5764 5765 5766
5766 5765 5764 5763 5762 5761 5760 5758 5757 5755 5754 5752 5750 5748 5747 5748 5747 5746 5746 5747 5747 5748 5748 5748 5749 5749 5750 5751 5752 5753 5753 5753 5753 5754 5756 5756 5757 5758 5759 5760 5761 5762
5763 5762 5761 5760 5759 5758 5757 5755 5754 5752 5751 5749 5748 5745 5744 5744 5743 5742 5742 5743 5743 5744 5744 5744 5745 5746 5747 5747 5748 5749 5750 5750 5750 5751 5752 5753 5754 5754 5755 5756 5757 5758
5760 5759 5758 5757 5756 5755 5753 5752 5751 5750 5748 5747 5745 5743 5741 5740 5739 5738 5738 5738 5738 5739 5739 5739 5740 5741 5743 5744 5745 5745 5746 5747 5747 5748 5748 5749 5750 5751 5751 5751 5753 5754
5757 5756 5755 5754 5753 5751 5750 5749 5748 5747 5746 5744 5743 5741 5739 5736 5735 5734 5734 5734 5735 5735 5735 5736 5737 5737 5738 5740 5740 5742 5742 5742 5743 5745 5745 5745 5745 5746 5747 5747 5749 5750
5754 5753 5752 5750 5749 5748 5747 5746 5744 5743 5742 5742 5740 5739 5736 5734 5731 5730 5730 5731 5731 5731 5731 5733 5734 5734 5733 5734 5736 5738 5738 5738 5739 5741 5742 5742 5742 5743 5744 5744 5745 5746
5751 5750 5748 5747 5746 5745 5743 5742 5741 5740 5739 5738 5737 5736 5734 5732 5729 5727 5726 5727 5727 5727 5727 5729 5729 5729 5729 5729 5731 5733 5734 5734 5736 5737 5738 5739 5738 5739 5740 5740 5741 5742
5748 5746 5745 5744 5742 5741 5740 5739 5738 5737 5735 5735 5734 5733 5731 5729 5727 5725 5723 5723 5723 5722 5722 5724 5725 5725 5725 5726 5726 5727 5729 5730 5731 5733 5735 5735 5735 5735 5735 5736 5736 5738
5744 5743 5742 5741 5740 5738 5737 5736 5734 5733 5732 5731 5731 5730 5728 5726 5725 5723 5721 5719 5718 5717 5717 5719 5720 5720 5720 5721 5722 5723 5724 5724 5726 5728 5730 5731 5731 5731 5732 5732 5732 5733
5741 5740 5739 5738 5737 5735 5734 5732 5731 5730 5728 5727 5727 5726 5725 5724 5722 5720 5719 5717 5715 5714 5714 5715 5715 5715 5716 5717 5717 5719 5720 5720 5721 5723 5725 5726 5726 5727 5728 5728 5727 5728
5737 5736 5735 5734 5733 5732 5731 5729 5728 5727 5725 5724 5723 5722 5722 5721 5719 5718 5716 5715 5713 5712 5712 5712 5712 5711 5712 5713 5713 5714 5715 5715 5716 5717 5718 5720 5722 5723 5724 5724 5723 5723
5733 5732 5731 5730 5729 5728 5727 5726 5725 5723 5722 5721 5719 5718 5718 5717 5716 5715 5713 5713 5711 5710 5710 5710 5709 5708 5708 5709 5709 5709 5711 5711 5711 5711 5712 5714 5716 5718 5719 5719 5719 5718
5729 5728 5727 5726 5725 5724 5723 5722 5721 5720 5719 5717 5716 5714 5714 5713 5712 5711 5710 5710 5709 5708 5707 5707 5706 5706 5706 5706 5705 5705 5706 5707 5708 5708 5709 5709 5711 5713 5714 5714 5715 5715
5724 5724 5723 5722 5721 5720 5719 5718 5717 5716 5715 5714 5712 5711 5710 5709 5709 5708 5707 5706 5705 5705 5704 5704 5703 5703 5704 5703 5701 5701 5702 5703 5703 5705 5705 5705 5705 5707 5708 5710 5711 5711
5720 5719 5718 5718 5717 5716 5715 5714 5713 5712 5711 5710 5709 5707 5706 5705 5705 5704 5703 5702 5702 5701 5701 5701 5700 5700 5700 5700 5699 5698 5699 5699 5699 5700 5700 5700 5700 5701 5704 5706 5706 5706
5715 5714 5714 5713 5712 5711 5710 5709 5708 5707 5706 5706 5705 5704 5703 5702 5701 5700 5699 5699 5698 5697 5697 5697 5697 5697 5697 5696 5695 5695 5696 5696 5696 5695 5695 5696 5696 5697 5700 5701 5701 5702
5709 5709 5708 5708 5707 5706 5706 5705 5704 5703 5702 5701 5700 5699 5698 5698 5697 5696 5695 5694 5694 5693 5693 5693 5693 5693 5693 5693 5692 5692 5692 5692 5692 5692 5692 5693 5693 5694 5695 5696 5696 5698
5704 5703 5702 5702 5701 5701 5700 5699 5699 5698 5698 5697 5695 5695 5694 5693 5692 5692 5691 5690 5690 5689 5689 5689 5689 5689 5689 5689 5688 5688 5688 5688 5688 5688 5688 5689 5690 5690 5690 5690 5692 5694
5698 5697 5696 5696 5695 5694 5694 5694 5693 5692 5692 5692 5691 5690 5689 5689 5688 5687 5686 5686 5686 5685 5685 5684 5684 5684 5684 5684 5684 5684 5684 5684 5684 5683 5683 5685 5686 5685 5685 5686 5687 5688
5692 5691 5690 5689 5689 5688 5688 5687 5687 5686 5686 5686 5685 5685 5684 5683 5683 5682 5681 5681 5681 5681 5680 5680 5679 5679 5679 5679 5679 5680 5680 5680 5679 5678 5678 5680 5681 5681 5681 5681 5682 5683
5686 5685 5684 5683 5682 5681 5681 5680 5680 5680 5679 5679 5679 5678 5678 5677 5677 5677 5676 5676 5675 5675 5675 5675 5674 5674 5674 5674 5675 5675 5675 5675 5675 5674 5673 5675 5676 5675 5676 5676 5677 5677